Orbital Elements at Epoch 2459200.5 (2020-Dec-17.0) TDB
Reference: JPL 22 (heliocentric ecliptic J2000)
Element | Value | Uncertainty (1-sigma) | Units |
e | .09768218756332232 | 8.3016e-08 | |
a | 2.542210423914584 | 1.5355e-08 | au |
q | 2.293881748460326 | 2.1231e-07 | au |
i | 12.18968035358333 | 6.4556e-06 | deg |
node | 298.62664549 | 2.2093e-05 | deg |
peri | 180.0261172403157 | 3.4936e-05 | deg |
M | 47.19690694214535 | 2.8722e-05 | deg |
tp | 2459006.399476452219 (2020-Jun-05.89947645) | 0.00011827 | TDB |
period | 1480.524742073809 4.05 | 1.3414e-05 3.673e-08 | d yr |
n | .2431570305915582 | 2.203e-09 | deg/d |
Q | 2.790539099368841 | 1.6855e-08 | au |
|
| | Orbit Determination Parameters
Additional Information
|